Change the Weather History Date:

Tuesday, December 18, 2012

  Actual Average Record
Temperature  
Mean Temperature 86 °F -  
Max Temperature 102 °F 93 °F 104 °F (2008)
Min Temperature 70 °F 65 °F 53 °F (1997)
Cooling Degree Days 21    
Growing Degree Days 36 (Base 50)    
Moisture  
Dew Point 44 °F    
Average Humidity 23    
Maximum Humidity 50    
Minimum Humidity 4    
Precipitation  
Precipitation 0.00 in 0.03 in - ()
Sea Level Pressure  
Sea Level Pressure 29.90 in    
Wind  
Wind Speed 6 mph ()    
Max Wind Speed 16 mph    
Max Gust Speed -    
Visibility 6.8 miles    
Events Rain    
Averages and records for this station are not official NWS values.
T = Trace of Precipitation, MM = Missing Value Source: Averaged Metar Reports

Daily Weather History Graph

Daily Weather History Graph

Search for Another Location

Airport or City:

Trip Planner

Search our weather history database for the weather conditions in past years. The results will help you decide how hot, cold, wet, or windy it might be!

Date:

Astronomy

Dec. 18, 2012 Rise Set
Actual Time 5:33 AM SAST 7:30 PM SAST
Civil Twilight 5:06 AM SAST 7:57 PM SAST
Nautical Twilight 4:33 AM SAST 8:29 PM SAST
Astronomical Twilight 3:59 AM SAST 9:04 PM SAST
Moon 10:53 AM SAST (12/18) 11:33 PM SAST (12/18)
Length of Visible Light 14h 50m
Length of Day
13h 57m
Waxing Crescent, 31% of the Moon is Illuminated
Dec 18
Waxing Crescent
Dec 20
First Quarter
Dec 28
Full
Jan 5
Last Quarter
Jan 11
New

Hourly Weather History & Observations

Time (SAST) Temp. Dew Point Humidity Pressure Visibility Wind Dir Wind Speed Gust Speed Precip Events Conditions
2:00 AM 72 °F 52 °F 38%  in 25 mi East 8.1 mph - -  
3:00 AM 71.6 °F 51.8 °F 50% 29.92 in - East 5.8 mph - N/A   Clear
4:00 AM 69.8 °F 50.0 °F 49% 29.92 in - ENE 3.5 mph - N/A   Clear
5:00 AM 72 °F 51 °F 36%  in 25 mi NE 5.8 mph - -   Scattered Clouds
5:00 AM 71.6 °F 50.0 °F 46% 29.92 in - NE 4.6 mph - N/A   Clear
6:00 AM 73.4 °F 48.2 °F 41% 29.92 in - East 8.1 mph - N/A   Clear
6:39 AM 77.0 °F 48.2 °F 36% 29.95 in - East 5.8 mph - N/A   Clear
7:00 AM 80.6 °F 48.2 °F 32% 29.92 in - East 5.8 mph - N/A   Clear
7:47 AM 84.2 °F 48.2 °F 29% 29.95 in - ENE 9.2 mph - N/A   Clear
8:00 AM 85 °F 49 °F 19%  in 25 mi East 8.1 mph - -   Scattered Clouds
8:00 AM 84.2 °F 48.2 °F 29% 29.95 in - East 8.1 mph - N/A   Clear
8:41 AM 89.6 °F 46.4 °F 22% 29.95 in - NE 13.8 mph - N/A   Clear
9:00 AM 91.4 °F 44.6 °F 20% 29.95 in - NE 13.8 mph - N/A   Clear
10:00 AM 95.0 °F 42.8 °F 16% 29.95 in - NNE 12.7 mph - N/A   Clear
11:00 AM 97 °F 41 °F 7%  in 25 mi NE 10.4 mph - -   Scattered Clouds
11:00 AM 96.8 °F 39.2 °F 14% 29.95 in 6.2 mi NE 9.2 mph - N/A   Partly Cloudy
12:00 PM 98.6 °F 41.0 °F 14% 29.92 in 6.2 mi North 3.5 mph - N/A   Scattered Clouds
1:00 PM 96.8 °F 37.4 °F 13% 29.92 in 6.2 mi East 4.6 mph - N/A   Scattered Clouds
2:00 PM 97 °F 37 °F 6%  in 25 mi SSE 6.9 mph - - Rain Light Rain
2:00 PM 96.8 °F 35.6 °F 12% 29.89 in 6.2 mi SSE 5.8 mph - N/A   Partly Cloudy
2:42 PM 100.4 °F 37.4 °F 11% 29.86 in 6.2 mi NE 3.5 mph - N/A   Partly Cloudy
5:00 PM 100 °F 32 °F 4%  in 12 mi South 4.6 mph - -   Scattered Clouds
5:00 PM 100.4 °F 32.0 °F 9% 29.80 in 6.2 mi South 3.5 mph - N/A   Partly Cloudy
6:00 PM 96.8 °F 32.0 °F 10% 29.80 in 6.2 mi North 3.5 mph - N/A   Partly Cloudy
7:00 PM 91.4 °F 39.2 °F 16% 29.83 in 6.2 mi North 6.9 mph - N/A   Partly Cloudy
8:00 PM 89 °F 44 °F 12%  in 25 mi North 4.6 mph - -   Partly Cloudy
8:00 PM 87.8 °F 42.8 °F 21% 29.86 in 6.2 mi North 3.5 mph - N/A   Scattered Clouds
9:00 PM 86.0 °F 44.6 °F 23% 29.86 in - NNW 4.6 mph - N/A   Unknown
10:00 PM 84.2 °F 50.0 °F 30% 29.92 in - NNW 16.1 mph - N/A   Unknown
11:00 PM 85 °F 50 °F 20%  in - NNW 12.7 mph - -  
11:00 PM 84.2 °F 50.0 °F 30% 29.89 in - NNW 12.7 mph - N/A   Unknown